This is the latest recevied weather packets stored in our database for station/object K5EAA-13. If no packets are shown the sender has not sent any weather packets the latest 10 day(s).
| Time | Temp. | Humidity | Pressure | Rain* | Wind** | Luminosity | Snow |
|---|---|---|---|---|---|---|---|
| 1787858031 | 36.67° C | 39% | 1014.9 hPa | 0 mm | - | 659 W/m² | - |
| 1787857726 | 36.67° C | 42% | 1015 hPa | 0 mm | - | 676 W/m² | - |
| 1787857423 | 36.11° C | 42% | 1015.2 hPa | 0 mm | - | 880 W/m² | - |
| 1787857121 | 35.56° C | 43% | 1015.4 hPa | 0 mm | - | 698 W/m² | - |
| 1787856816 | 35.56° C | 42% | 1015.4 hPa | 0 mm | - | 432 W/m² | - |
| 1787856515 | 36.11° C | 41% | 1015.5 hPa | 0 mm | - | 800 W/m² | - |
| 1787856211 | 36.11° C | 42% | 1015.5 hPa | 0 mm | - | 786 W/m² | - |
| 1787855906 | 35.56° C | 43% | 1015.4 hPa | 0 mm | - | 761 W/m² | - |
| 1787855601 | 35° C | 44% | 1015.7 hPa | 0 mm | - | 748 W/m² | - |
| 1787855296 | 35° C | 45% | 1015.6 hPa | 0 mm | - | 744 W/m² | - |
| 1787854992 | 35.56° C | 44% | 1015.6 hPa | 0 mm | - | 738 W/m² | - |
| 1787854687 | 35.56° C | 44% | 1015.6 hPa | 0 mm | - | 738 W/m² | - |
| 1787854386 | 34.44° C | 46% | 1015.3 hPa | 0 mm | - | 734 W/m² | - |
| 1787854081 | 35° C | 45% | 1015.6 hPa | 0 mm | - | 738 W/m² | - |
| 1787853780 | 34.44° C | 47% | 1015.5 hPa | 0 mm | - | 738 W/m² | - |
| 1787853480 | 35° C | 47% | 1015.8 hPa | 0 mm | - | 738 W/m² | - |
| 1787853180 | 34.44° C | 46% | 1015.6 hPa | 0 mm | - | 737 W/m² | - |
| 1787852874 | 33.89° C | 48% | 1015.9 hPa | 0 mm | - | 725 W/m² | - |
| 1787852574 | 33.89° C | 50% | 1015.8 hPa | 0 mm | - | 727 W/m² | - |
| 1787852273 | 33.89° C | 49% | 1016 hPa | 0 mm | - | 634 W/m² | - |
| 1787851968 | 33.89° C | 49% | 1016.1 hPa | 0 mm | - | 746 W/m² | - |
| 1787851667 | 33.89° C | 49% | 1015.9 hPa | 0 mm | - | 741 W/m² | - |
| 1787851367 | 33.89° C | 50% | 1016.1 hPa | 0 mm | - | 728 W/m² | - |
| 1787851062 | 33.89° C | 50% | 1016 hPa | 0 mm | - | 727 W/m² | - |
| 1787850758 | 33.89° C | 51% | 1016 hPa | 0 mm | - | 720 W/m² | - |
* Rain latest hour (hover to see other rain measurements)
** Current wind speed in m/s (hover to see current wind gust speed)